[[{"header":{"parameterUnit":"m.s-1","parameterCategory":2,"la1":30.2991,"la2":30.254,"lo1":-89.0895,"lo2":-89.0444,"dy":0.0017,"dx":0.0017,"nx":28,"ny":28,"refTime":"2023-08-29T09:00:00:Z","depth":"0","parameterNumber":2,"parameterNumberName":"U-component_of_CURRENTS"},"data":[0,0,0,0,0,0,0,0,0,0,0,0,0,0,0,0,0,0,0,0,0,0,0,0,0,0,0,0,0,0,0,0,0,0,0,0,0,0,0,0,0,0,0,0,0,0,0,0,0,0,0,0,0,0,0,0,0,0,-0.2855,-0.2856,0,-0.2877,-0.2877,-0.2877,-0.2841,-0.284,-0.2839,-0.2838,-0.2796,-0.2796,-0.2796,0,0,0,0,0,0,0,0,0,0,0,0,0,-0.2787,-0.2788,-0.2855,-0.2856,-0.2856,-0.2877,-0.2877,-0.2877,-0.2841,-0.284,-0.2839,-0.2838,-0.2797,-0.2796,-0.2796,0,0,0,0,0,0,0,0,0,0,0,0,0,-0.2811,-0.2789,-0.2855,-0.2843,-0.2842,-0.2877,-0.2877,-0.2877,-0.2842,-0.284,-0.2839,-0.2837,-0.2797,-0.2796,-0.2796,-0.2823,0,0,-0.2795,-0.2795,0,0,0,0,0,0,0,0,-0.281,-0.2813,-0.2844,-0.2844,-0.2843,-0.2857,-0.2838,-0.2857,-0.2842,-0.2839,-0.2838,-0.2837,-0.2814,-0.2812,-0.2816,-0.2821,-0.2819,-0.2795,-0.2795,-0.2795,-0.2795,0,0,0,0,0,0,0,-0.2808,-0.2812,-0.2861,-0.2845,-0.2845,-0.2838,-0.2839,-0.2841,-0.2831,-0.2839,-0.2837,-0.2844,-0.2812,-0.2817,-0.2815,-0.2819,-0.2795,-0.2795,-0.2795,-0.2794,-0.2843,-0.2844,0,0,0,0,0,0,-0.2813,-0.2811,-0.286,-0.2862,-0.2826,-0.2841,-0.2842,-0.2852,-0.2832,-0.2829,-0.2846,-0.2843,-0.2818,-0.2815,-0.2813,-0.2839,-0.2795,-0.2794,-0.2794,-0.2842,-0.2843,-0.2845,0,0,0,0,0,0,-0.2811,-0.2817,-0.286,-0.2839,-0.2844,-0.2843,-0.2855,-0.2853,-0.2852,-0.2839,-0.2833,-0.2846,-0.2817,-0.2814,-0.2815,-0.2836,-0.2794,-0.2794,-0.284,-0.2842,-0.2844,-0.2892,0,0,0,0,0,0,-0.2809,-0.2816,-0.2821,-0.2839,-0.2845,-0.2883,-0.2857,-0.2855,-0.286,-0.2856,-0.2837,-0.2832,-0.2815,-0.2816,-0.2815,-0.2835,-0.2794,-0.2838,-0.2841,-0.2844,-0.2889,-0.2896,-0.2902,0,0,0,0,0,-0.2807,-0.2821,-0.2821,-0.2827,-0.2853,-0.2884,-0.2887,-0.2879,-0.2862,-0.287,-0.2854,-0.2832,-0.2833,-0.2817,-0.2815,-0.2836,-0.2837,-0.284,-0.2843,-0.2886,-0.2895,-0.2902,0,0,0,0,0,0,-0.2791,-0.282,-0.282,-0.2841,-0.2863,-0.2879,-0.2885,-0.2884,-0.288,-0.287,-0.2848,-0.2843,-0.2855,-0.2843,-0.2826,-0.2861,-0.2833,-0.2836,-0.2866,-0.2874,-0.2881,-0.2879,-0.2793,0,0,0,0,0,-0.2794,-0.2808,-0.2839,-0.2852,-0.2866,-0.2876,-0.2885,-0.2887,-0.289,-0.2886,-0.2874,-0.2866,-0.2872,-0.2868,-0.287,-0.2886,-0.2864,-0.2902,-0.2908,-0.2914,-0.2913,-0.2907,-0.2913,-0.2856,-0.2856,-0.2856,0,0,-0.2789,-0.2807,-0.2814,-0.285,-0.2861,-0.2893,-0.2877,-0.2898,-0.2919,-0.2883,-0.2896,-0.2889,-0.2882,-0.2901,-0.2906,-0.2889,-0.2919,-0.2918,-0.2922,-0.2919,-0.2911,-0.2917,-0.2921,-0.2858,-0.2858,-0.2857,0,0,-0.2796,-0.2808,-0.2827,-0.2854,-0.2885,-0.29,-0.2908,-0.2932,-0.2934,-0.2954,-0.2936,-0.294,-0.2944,-0.2946,-0.2947,-0.2993,-0.2955,-0.2997,-0.3025,-0.302,-0.3024,-0.3027,-0.3001,-0.3001,-0.2998,-0.2998,-0.2998,0,-0.2788,-0.2817,-0.2837,-0.2871,-0.2889,-0.2906,-0.2934,-0.2956,-0.2973,-0.2978,-0.2962,-0.2975,-0.2968,-0.2993,-0.3009,-0.3007,-0.2988,-0.2993,-0.3026,-0.3029,-0.3032,-0.3004,-0.3004,-0.3001,-0.3001,-0.3,-0.3,0,-0.2816,-0.2841,-0.2856,-0.2902,-0.293,-0.2954,-0.2994,-0.3017,-0.3018,-0.303,-0.3048,-0.3041,-0.3043,-0.3053,-0.3043,-0.3068,-0.3043,-0.3035,-0.3001,-0.304,-0.3009,-0.3008,-0.3005,-0.3004,-0.3003,-0.3002,0,0,-0.2779,-0.2859,-0.2859,-0.2887,-0.2943,-0.297,-0.3018,-0.3058,-0.3082,-0.3094,-0.3111,-0.3127,-0.3111,-0.3113,-0.3105,-0.3105,-0.3107,-0.3079,-0.3078,-0.3044,-0.3077,-0.3007,-0.2999,-0.3102,-0.3102,-0.3103,-0.3045,0,-0.2785,-0.2846,-0.2883,-0.2936,-0.297,-0.3011,-0.3054,-0.3095,-0.3117,-0.3144,-0.3144,-0.3156,-0.314,-0.3136,-0.3138,-0.312,-0.3108,-0.3122,-0.3052,-0.305,-0.2976,-0.2997,-0.2899,-0.2835,-0.3044,-0.3044,-0.3044,0,-0.2786,-0.283,-0.2879,-0.2956,-0.2973,-0.3007,-0.3066,-0.311,-0.3162,-0.3174,-0.3188,-0.3188,-0.3197,-0.3174,-0.3151,-0.3158,-0.312,-0.3099,-0.3096,-0.3012,-0.2978,-0.2833,-0.2825,-0.2806,-0.3042,-0.3042,-0.3042,0,-0.2738,-0.2819,-0.2853,-0.288,-0.2974,-0.2996,-0.3039,-0.3103,-0.3141,-0.3184,-0.3202,-0.3213,-0.3209,-0.3182,-0.314,-0.3144,-0.3101,-0.3099,-0.2996,-0.2989,-0.2882,-0.2865,-0.2838,-0.3071,-0.3071,-0.3071,-0.3071,0,-0.2719,-0.2745,-0.2832,-0.2853,-0.2894,-0.2968,-0.301,-0.306,-0.3127,-0.315,-0.3201,-0.321,-0.3211,-0.3191,-0.3147,-0.3062,-0.31,-0.2997,-0.2973,-0.2896,-0.2882,-0.284,-0.2842,-0.3069,-0.3069,-0.307,-0.307,0,-0.2652,-0.2713,-0.2756,-0.2845,-0.2871,-0.2893,-0.2985,-0.3008,-0.3094,-0.3126,-0.3136,-0.3204,-0.3171,-0.3158,-0.3108,-0.3057,-0.293,-0.2946,-0.2846,-0.2811,-0.2695,-0.2703,-0.2614,-0.2536,-0.2825,-0.2823,-0.2822,0,-0.262,-0.2635,-0.2722,-0.2728,-0.2758,-0.2813,-0.2835,-0.2955,-0.2979,-0.31,-0.3089,-0.3121,-0.3096,-0.3025,-0.2947,-0.2853,-0.2833,-0.2706,-0.2699,-0.2671,-0.2663,-0.2665,-0.2606,-0.2574,-0.257,-0.2567,-0.2565,0,-0.2534,-0.2559,-0.2585,-0.2613,-0.2633,-0.2686,-0.2733,-0.2769,-0.2887,-0.2936,-0.2976,-0.2988,-0.2949,-0.2834,-0.2743,-0.2669,-0.2634,-0.2641,-0.2641,-0.2486,-0.2455,-0.2373,-0.2626,-0.2538,-0.2541,-0.2543,-0.2544,-0.2545,-0.2431,-0.2424,-0.2447,-0.2463,-0.2493,-0.2524,-0.251,-0.2583,-0.2635,-0.2675,-0.2777,-0.277,-0.2735,-0.2605,-0.2528,-0.2392,-0.2431,-0.2329,-0.2346,-0.2355,-0.2265,-0.2452,-0.2323,-0.2325,-0.2326,-0.2327,-0.2328,0,-0.229,-0.229,-0.229,-0.2304,-0.2276,-0.2356,-0.2395,-0.2357,-0.235,-0.2461,-0.2474,-0.2518,-0.2399,-0.2376,-0.2256,-0.2143,-0.2084,-0.2089,-0.2083,-0.2038,-0.2221,-0.2197,-0.2,-0.2,-0.2,-0.2,-0.2,-0.2,-0.2203,-0.2151,-0.2164,-0.2075,-0.2077,-0.1994,-0.1985,-0.1967,-0.2012,-0.2051,-0.2137,-0.2252,-0.2241,-0.2317,-0.2148,-0.2029,-0.1957,-0.1888,-0.1901,-0.2065,-0.209,-0.2114,-0.2094,-0.1877,-0.1877,-0.166,-0.1659,-0.1657]},{"header":{"parameterUnit":"m.s-1","parameterCategory":2,"la1":30.2991,"la2":30.254,"lo1":-89.0895,"lo2":-89.0444,"dy":0.0017,"dx":0.0017,"nx":28,"ny":28,"refTime":"2023-08-29T09:00:00:Z","depth":"0","parameterNumber":3,"parameterNumberName":"V-component_of_CURRENTS"},"data":[0,0,0,0,0,0,0,0,0,0,0,0,0,0,0,0,0,0,0,0,0,0,0,0,0,0,0,0,0,0,0,0,0,0,0,0,0,0,0,0,0,0,0,0,0,0,0,0,0,0,0,0,0,0,0,0,0,0,-0.0454,-0.0454,0,-0.0359,-0.0357,-0.0356,-0.0291,-0.029,-0.029,-0.029,-0.0158,-0.0155,-0.0151,0,0,0,0,0,0,0,0,0,0,0,0,0,-0.0527,-0.0526,-0.0455,-0.0453,-0.0452,-0.0359,-0.0357,-0.0356,-0.0291,-0.029,-0.029,-0.0289,-0.0159,-0.0155,-0.0151,0,0,0,0,0,0,0,0,0,0,0,0,0,-0.0469,-0.0526,-0.0455,-0.0409,-0.0404,-0.0359,-0.0357,-0.0356,-0.0291,-0.029,-0.029,-0.0289,-0.016,-0.0155,-0.0151,-0.0133,0,0,-0.0136,-0.0134,0,0,0,0,0,0,0,0,-0.0473,-0.0466,-0.0417,-0.0412,-0.0407,-0.0337,-0.0334,-0.028,-0.0291,-0.0333,-0.029,-0.0289,-0.0215,-0.0206,-0.0188,-0.0127,-0.0121,-0.0136,-0.0133,-0.0131,-0.0129,0,0,0,0,0,0,0,-0.0477,-0.047,-0.0416,-0.0416,-0.041,-0.0375,-0.0367,-0.0324,-0.0277,-0.0329,-0.0325,-0.0316,-0.0212,-0.0193,-0.0185,-0.0119,-0.0136,-0.0132,-0.0129,-0.0127,-0.0023,-0.0023,0,0,0,0,0,0,-0.0494,-0.0474,-0.0419,-0.0413,-0.044,-0.0375,-0.0365,-0.0359,-0.0278,-0.0266,-0.0316,-0.0313,-0.0201,-0.019,-0.018,-0.0149,-0.0131,-0.0126,-0.0124,-0.0023,-0.0023,-0.0023,0,0,0,0,0,0,-0.0496,-0.049,-0.0422,-0.0442,-0.0431,-0.0375,-0.0368,-0.0358,-0.0338,-0.0269,-0.0255,-0.0308,-0.0201,-0.0186,-0.014,-0.0144,-0.0124,-0.012,-0.0023,-0.0023,-0.0023,-0.0091,0,0,0,0,0,0,-0.0499,-0.0492,-0.0495,-0.0443,-0.043,-0.0403,-0.0368,-0.0356,-0.0334,-0.0329,-0.0257,-0.0244,-0.0199,-0.0148,-0.0136,-0.0137,-0.0116,-0.0023,-0.0023,-0.0023,-0.0089,-0.0093,-0.0098,0,0,0,0,0,-0.0502,-0.0512,-0.0496,-0.049,-0.0437,-0.0404,-0.0395,-0.0351,-0.0335,-0.0331,-0.0279,-0.0247,-0.014,-0.0144,-0.013,-0.013,-0.0023,-0.0023,-0.0023,-0.0087,-0.0092,-0.0097,0,0,0,0,0,0,-0.0544,-0.0504,-0.0487,-0.0484,-0.045,-0.0393,-0.0388,-0.0359,-0.0315,-0.031,-0.0244,-0.0227,-0.019,-0.0151,-0.0157,-0.01,-0.0078,-0.0075,-0.0131,-0.0136,-0.014,-0.0153,-0.0112,0,0,0,0,0,-0.0557,-0.0556,-0.0508,-0.0507,-0.0494,-0.0443,-0.0425,-0.0397,-0.0351,-0.0331,-0.028,-0.0226,-0.018,-0.0152,-0.0108,-0.0075,-0.0031,-0.0066,-0.0071,-0.0075,-0.0076,-0.0012,-0.0011,-0.0024,-0.0024,-0.0024,0,0,-0.0573,-0.0552,-0.055,-0.0517,-0.0488,-0.0476,-0.0431,-0.0411,-0.0396,-0.0324,-0.0291,-0.0242,-0.0176,-0.0139,-0.0119,-0.0105,-0.0049,-0.0075,-0.0079,-0.0077,-0.0012,-0.0011,-0.001,-0.0024,-0.0024,-0.0024,0,0,-0.0611,-0.0587,-0.06,-0.0578,-0.0543,-0.0506,-0.0505,-0.0452,-0.0424,-0.0387,-0.0332,-0.0283,-0.0216,-0.0165,-0.0131,-0.0133,-0.0078,-0.0124,-0.015,-0.009,-0.0088,-0.0086,-0.0035,-0.0028,-0.0122,-0.0123,-0.0123,0,-0.0633,-0.0639,-0.0598,-0.0604,-0.0591,-0.0526,-0.0532,-0.0493,-0.0431,-0.0407,-0.0388,-0.0278,-0.0226,-0.0168,-0.0169,-0.0143,-0.0103,-0.0137,-0.0096,-0.0093,-0.009,-0.0038,-0.0029,-0.0126,-0.0125,-0.0125,-0.0125,0,-0.0678,-0.0681,-0.0687,-0.0671,-0.065,-0.0645,-0.0588,-0.0562,-0.0519,-0.0471,-0.041,-0.0333,-0.0266,-0.0244,-0.0205,-0.0157,-0.0136,-0.0113,-0.0085,-0.0092,-0.0037,-0.0027,-0.013,-0.0129,-0.0128,-0.0128,0,0,-0.0733,-0.0722,-0.0726,-0.0733,-0.0686,-0.0677,-0.0648,-0.06,-0.058,-0.051,-0.0472,-0.0387,-0.0337,-0.0296,-0.0237,-0.0181,-0.0127,-0.0144,-0.014,-0.01,0.0002,0.0051,0.0067,-0.0097,-0.0096,-0.0095,0.0029,0,-0.0781,-0.0821,-0.0788,-0.081,-0.0821,-0.0755,-0.0738,-0.0685,-0.0618,-0.0563,-0.0466,-0.0409,-0.0358,-0.0326,-0.0262,-0.0157,-0.0102,-0.0163,0.0009,0.0014,0.0054,0.008,0.0119,0.0236,0.0039,0.0041,0.0042,0,-0.0834,-0.0855,-0.0895,-0.0889,-0.0886,-0.0879,-0.0833,-0.0805,-0.0703,-0.0653,-0.0564,-0.0481,-0.038,-0.0342,-0.0167,-0.0209,-0.0114,-0.0034,-0.0027,0.0051,0.0083,0.0214,0.0262,0.0423,0.0059,0.0057,0.0056,0,-0.0905,-0.0924,-0.0961,-0.0961,-0.0942,-0.0938,-0.0912,-0.0833,-0.0806,-0.0696,-0.0659,-0.0524,-0.0448,-0.0316,-0.0141,-0.0155,0.0054,0.0059,0.0192,0.0196,0.0281,0.029,0.0502,0.0176,0.0176,0.0176,0.0175,0,-0.0969,-0.0997,-0.1001,-0.1022,-0.1063,-0.1012,-0.1015,-0.0966,-0.0884,-0.0849,-0.0709,-0.0642,-0.0437,-0.0287,-0.0148,0.0066,0.0055,0.0199,0.0239,0.0257,0.0263,0.0447,0.0504,0.018,0.0179,0.0178,0.0177,0,-0.1036,-0.104,-0.1088,-0.1095,-0.1098,-0.1125,-0.1094,-0.1085,-0.0999,-0.0941,-0.0909,-0.0715,-0.0511,-0.03,-0.006,0.0066,0.0361,0.0328,0.0333,0.0372,0.0628,0.0678,0.0915,0.1004,0.0488,0.049,0.0491,0,-0.1075,-0.1109,-0.1156,-0.1191,-0.1193,-0.1215,-0.1226,-0.1156,-0.113,-0.0984,-0.0958,-0.0739,-0.0567,-0.0185,0.0086,0.036,0.0471,0.0539,0.0522,0.0665,0.0751,0.0775,0.0834,0.0606,0.0609,0.0611,0.0612,0,-0.1143,-0.116,-0.1205,-0.1282,-0.1314,-0.1348,-0.1342,-0.134,-0.1242,-0.1166,-0.101,-0.0853,-0.0455,-0.0087,0.0281,0.0433,0.0661,0.0589,0.0751,0.0879,0.0907,0.1004,0.0489,0.0631,0.0629,0.0628,0.0627,0.0626,-0.119,-0.1248,-0.1303,-0.1375,-0.142,-0.1454,-0.1468,-0.143,-0.1382,-0.1229,-0.106,-0.0779,-0.0238,0.0307,0.0496,0.0898,0.0836,0.0998,0.1051,0.1064,0.1148,0.0667,0.0843,0.0842,0.0842,0.0841,0.0841,0,-0.1242,-0.1303,-0.1381,-0.1466,-0.1525,-0.1519,-0.1527,-0.1504,-0.1437,-0.1236,-0.1039,-0.0422,0.01,0.0575,0.1154,0.1353,0.1385,0.1442,0.1495,0.1536,0.1137,0.114,0.1372,0.1372,0.1372,0.1372,0.1372,0.1371,-0.1271,-0.1361,-0.1408,-0.153,-0.1579,-0.1622,-0.162,-0.1553,-0.1408,-0.1066,-0.0705,-0.0405,0.0297,0.1257,0.1763,0.1789,0.1953,0.1929,0.2019,0.1752,0.1714,0.1678,0.1697,0.2042,0.2043,0.2401,0.2404,0.2407]}],[{"header":{"parameterUnit":"m.s-1","parameterCategory":2,"la1":30.2991,"la2":30.254,"lo1":-89.0895,"lo2":-89.0444,"dy":0.0017,"dx":0.0017,"nx":28,"ny":28,"refTime":"2023-08-29T09:00:00:Z","depth":"2","parameterNumber":2,"parameterNumberName":"U-component_of_CURRENTS"},"data":[0,0,0,0,0,0,0,0,0,0,0,0,0,0,0,0,0,0,0,0,0,0,0,0,0,0,0,0,0,0,0,0,0,0,0,0,0,0,0,0,0,0,0,0,0,0,0,0,0,0,0,0,0,0,0,0,0,0,-0.2772,-0.2773,0,-0.2794,-0.2794,-0.2794,-0.2763,-0.2762,-0.2762,-0.2761,-0.2724,-0.2724,-0.2724,0,0,0,0,0,0,0,0,0,0,0,0,0,-0.2707,-0.2708,-0.2772,-0.2773,-0.2773,-0.2794,-0.2794,-0.2794,-0.2763,-0.2762,-0.2761,-0.276,-0.2724,-0.2724,-0.2724,0,0,0,0,0,0,0,0,0,0,0,0,0,-0.273,-0.2708,-0.2772,-0.2762,-0.2762,-0.2794,-0.2794,-0.2794,-0.2764,-0.2762,-0.2761,-0.276,-0.2725,-0.2724,-0.2724,-0.2748,0,0,-0.2723,-0.2723,0,0,0,0,0,0,0,0,-0.2729,-0.2732,-0.2763,-0.2763,-0.2763,-0.2777,-0.2758,-0.2777,-0.2764,-0.276,-0.2761,-0.2759,-0.2739,-0.2738,-0.2742,-0.2746,-0.2745,-0.2723,-0.2723,-0.2723,-0.2723,0,0,0,0,0,0,0,-0.2727,-0.2731,-0.2778,-0.2764,-0.2764,-0.2758,-0.2759,-0.2761,-0.2754,-0.276,-0.2759,-0.2766,-0.2738,-0.2742,-0.2741,-0.2744,-0.2723,-0.2723,-0.2723,-0.2723,-0.2772,-0.2773,0,0,0,0,0,0,-0.2731,-0.273,-0.2777,-0.2779,-0.2745,-0.276,-0.2762,-0.2771,-0.2755,-0.2752,-0.2767,-0.2764,-0.2743,-0.2741,-0.2739,-0.2767,-0.2723,-0.2723,-0.2723,-0.2771,-0.2772,-0.2774,0,0,0,0,0,0,-0.273,-0.2735,-0.2777,-0.2756,-0.2762,-0.2763,-0.2774,-0.2773,-0.2774,-0.2761,-0.2756,-0.2769,-0.2742,-0.2739,-0.2743,-0.2765,-0.2723,-0.2722,-0.2769,-0.2771,-0.2773,-0.2822,0,0,0,0,0,0,-0.2728,-0.2735,-0.274,-0.2757,-0.2763,-0.28,-0.2775,-0.2774,-0.2781,-0.2778,-0.2762,-0.2757,-0.2741,-0.2743,-0.2743,-0.2764,-0.2722,-0.2767,-0.277,-0.2772,-0.2818,-0.2825,-0.2831,0,0,0,0,0,-0.2725,-0.274,-0.274,-0.2746,-0.2771,-0.2801,-0.2804,-0.2798,-0.2783,-0.2792,-0.2778,-0.2757,-0.276,-0.2744,-0.2743,-0.2765,-0.2766,-0.2769,-0.2772,-0.2815,-0.2824,-0.2831,0,0,0,0,0,0,-0.2712,-0.2739,-0.2739,-0.276,-0.2782,-0.2797,-0.2804,-0.2803,-0.2802,-0.2793,-0.2772,-0.2768,-0.2782,-0.2771,-0.2753,-0.2789,-0.2762,-0.2765,-0.2795,-0.2803,-0.2809,-0.2808,-0.2722,0,0,0,0,0,-0.2714,-0.2728,-0.2757,-0.2771,-0.2785,-0.2795,-0.2804,-0.2807,-0.2811,-0.2808,-0.2799,-0.2792,-0.2798,-0.2796,-0.2798,-0.2815,-0.2794,-0.283,-0.2837,-0.2842,-0.2843,-0.2837,-0.2842,-0.2785,-0.2785,-0.2785,0,0,-0.271,-0.2728,-0.2734,-0.2769,-0.2781,-0.2811,-0.2796,-0.2818,-0.2839,-0.2806,-0.2821,-0.2815,-0.2809,-0.2828,-0.2834,-0.2818,-0.2848,-0.2847,-0.2851,-0.2848,-0.2841,-0.2846,-0.2851,-0.2787,-0.2787,-0.2786,0,0,-0.2718,-0.273,-0.2748,-0.2774,-0.2805,-0.2819,-0.2829,-0.2852,-0.2856,-0.2877,-0.2861,-0.2866,-0.2872,-0.2874,-0.2875,-0.2921,-0.2885,-0.2926,-0.2954,-0.2949,-0.2953,-0.2956,-0.2932,-0.2933,-0.2926,-0.2927,-0.2927,0,-0.2711,-0.2738,-0.2758,-0.2791,-0.2808,-0.2826,-0.2854,-0.2875,-0.2894,-0.29,-0.2886,-0.2901,-0.2895,-0.292,-0.2936,-0.2935,-0.2917,-0.2922,-0.2956,-0.2959,-0.2961,-0.2936,-0.2936,-0.2929,-0.2929,-0.2929,-0.2928,0,-0.2738,-0.2762,-0.2777,-0.2821,-0.2848,-0.2873,-0.2912,-0.2936,-0.2939,-0.2951,-0.2972,-0.2967,-0.297,-0.298,-0.297,-0.2996,-0.2973,-0.2965,-0.2931,-0.297,-0.294,-0.294,-0.2933,-0.2932,-0.2931,-0.2931,0,0,-0.2704,-0.278,-0.278,-0.2807,-0.2862,-0.2888,-0.2935,-0.2975,-0.2999,-0.3014,-0.3033,-0.3051,-0.3037,-0.3039,-0.3032,-0.3033,-0.3038,-0.3009,-0.3008,-0.2977,-0.3011,-0.294,-0.2932,-0.3033,-0.3033,-0.3034,-0.2981,0,-0.2709,-0.2768,-0.2803,-0.2854,-0.2887,-0.2927,-0.297,-0.3011,-0.3034,-0.3062,-0.3065,-0.3078,-0.3065,-0.3063,-0.3066,-0.3049,-0.3039,-0.3052,-0.2986,-0.2983,-0.2909,-0.293,-0.2695,-0.2624,-0.298,-0.298,-0.298,0,-0.271,-0.2752,-0.28,-0.2873,-0.289,-0.2923,-0.2983,-0.3026,-0.3079,-0.3092,-0.3108,-0.3111,-0.3122,-0.31,-0.3081,-0.3088,-0.3052,-0.3033,-0.3031,-0.2945,-0.2911,-0.2645,-0.2609,-0.2978,-0.2978,-0.2978,-0.2978,0,-0.2664,-0.2742,-0.2775,-0.2801,-0.2892,-0.2914,-0.2957,-0.3021,-0.3057,-0.3103,-0.3122,-0.3135,-0.3134,-0.311,-0.3072,-0.3076,-0.3038,-0.3034,-0.2933,-0.2927,-0.2703,-0.2677,-0.3009,-0.3009,-0.3009,-0.301,-0.301,0,-0.2646,-0.2671,-0.2755,-0.2776,-0.2815,-0.2888,-0.293,-0.2979,-0.3046,-0.3069,-0.3122,-0.3131,-0.3137,-0.312,-0.308,-0.2998,-0.3036,-0.2935,-0.2911,-0.2714,-0.2691,-0.2982,-0.2979,-0.3008,-0.3008,-0.3008,-0.3009,0,-0.2581,-0.264,-0.2682,-0.2768,-0.2794,-0.2816,-0.2907,-0.2929,-0.3015,-0.3046,-0.3057,-0.3126,-0.3097,-0.3088,-0.3043,-0.2993,-0.2931,-0.2886,-0.2649,-0.2599,-0.282,-0.2821,-0.2773,-0.277,-0.2768,-0.2766,-0.2764,0,-0.255,-0.2565,-0.2649,-0.2655,-0.2685,-0.2739,-0.2762,-0.2879,-0.2901,-0.3019,-0.3008,-0.3044,-0.3017,-0.2952,-0.2851,-0.2755,-0.2849,-0.2505,-0.2479,-0.2816,-0.2798,-0.2803,-0.2807,-0.2194,-0.2188,-0.2183,-0.2179,0,-0.2467,-0.2492,-0.2517,-0.2545,-0.2565,-0.2614,-0.266,-0.2693,-0.2808,-0.2852,-0.289,-0.29,-0.2841,-0.2645,-0.255,-0.2468,-0.2509,-0.24,-0.2792,-0.2308,-0.227,-0.2253,-0.2276,-0.2133,-0.2138,-0.2141,-0.2143,-0.2145,-0.2368,-0.2361,-0.2384,-0.2399,-0.2428,-0.2455,-0.2439,-0.2499,-0.2543,-0.2546,-0.266,-0.2574,-0.2543,-0.2276,-0.2152,-0.2052,-0.2234,-0.2127,-0.2142,-0.2163,-0.2123,-0.2085,-0.1904,-0.1907,-0.191,-0.1912,-0.1914,0,-0.223,-0.2232,-0.2231,-0.2243,-0.2211,-0.2293,-0.2325,-0.2265,-0.2239,-0.2269,-0.2254,-0.2014,-0.1889,-0.1869,-0.1639,-0.161,-0.1585,-0.1548,-0.1504,-0.155,-0.1591,-0.1522,-0.1143,-0.114,-0.1138,-0.1137,0,0,-0.2146,-0.2093,-0.2103,-0.2013,-0.2016,-0.1926,-0.1913,-0.1851,-0.1827,-0.1733,-0.167,-0.1767,-0.1816,-0.1474,-0.1395,-0.1233,-0.1381,-0.117,-0.1787,-0.1781,-0.1819,-0.1919,-0.1864,0,0,0,0,0]},{"header":{"parameterUnit":"m.s-1","parameterCategory":2,"la1":30.2991,"la2":30.254,"lo1":-89.0895,"lo2":-89.0444,"dy":0.0017,"dx":0.0017,"nx":28,"ny":28,"refTime":"2023-08-29T09:00:00:Z","depth":"2","parameterNumber":3,"parameterNumberName":"V-component_of_CURRENTS"},"data":[0,0,0,0,0,0,0,0,0,0,0,0,0,0,0,0,0,0,0,0,0,0,0,0,0,0,0,0,0,0,0,0,0,0,0,0,0,0,0,0,0,0,0,0,0,0,0,0,0,0,0,0,0,0,0,0,0,0,-0.0358,-0.0357,0,-0.0263,-0.0262,-0.0261,-0.0199,-0.0198,-0.0198,-0.0198,-0.0069,-0.0066,-0.0063,0,0,0,0,0,0,0,0,0,0,0,0,0,-0.043,-0.0429,-0.0358,-0.0357,-0.0356,-0.0264,-0.0262,-0.0261,-0.0199,-0.0198,-0.0198,-0.0197,-0.007,-0.0066,-0.0062,0,0,0,0,0,0,0,0,0,0,0,0,0,-0.0372,-0.0429,-0.0358,-0.0314,-0.031,-0.0264,-0.0262,-0.026,-0.0199,-0.0198,-0.0198,-0.0197,-0.0071,-0.0066,-0.0062,-0.0042,0,0,-0.0047,-0.0045,0,0,0,0,0,0,0,0,-0.0376,-0.037,-0.0322,-0.0317,-0.0312,-0.0243,-0.024,-0.0186,-0.0199,-0.024,-0.0198,-0.0197,-0.0125,-0.0116,-0.0098,-0.0036,-0.0031,-0.0047,-0.0044,-0.0042,-0.0041,0,0,0,0,0,0,0,-0.038,-0.0373,-0.0319,-0.0321,-0.0315,-0.0281,-0.0273,-0.023,-0.0185,-0.0236,-0.0232,-0.0223,-0.0122,-0.0103,-0.0094,-0.0029,-0.0047,-0.0043,-0.004,-0.0038,0.0064,0.0064,0,0,0,0,0,0,-0.0397,-0.0377,-0.0322,-0.0317,-0.0344,-0.028,-0.0271,-0.0265,-0.0186,-0.0174,-0.0223,-0.022,-0.0111,-0.01,-0.009,-0.0061,-0.0042,-0.0038,-0.0035,0.0064,0.0064,0.0064,0,0,0,0,0,0,-0.0399,-0.0393,-0.0326,-0.0345,-0.0335,-0.028,-0.0273,-0.0263,-0.0245,-0.0177,-0.0164,-0.0216,-0.011,-0.0096,-0.0051,-0.0055,-0.0036,-0.0031,0.0064,0.0064,0.0064,-0.0004,0,0,0,0,0,0,-0.0401,-0.0394,-0.0399,-0.0347,-0.0334,-0.0307,-0.0274,-0.0262,-0.0241,-0.0236,-0.0166,-0.0154,-0.0109,-0.0059,-0.0047,-0.0048,-0.0028,0.0064,0.0064,0.0064,-0.0001,-0.0006,-0.001,0,0,0,0,0,-0.0404,-0.0414,-0.04,-0.0393,-0.0341,-0.0308,-0.0299,-0.0257,-0.0242,-0.0238,-0.0187,-0.0156,-0.0051,-0.0055,-0.0041,-0.0041,0.0065,0.0064,0.0064,0.0001,-0.0005,-0.001,0,0,0,0,0,0,-0.0447,-0.0407,-0.039,-0.0387,-0.0354,-0.0298,-0.0293,-0.0265,-0.0222,-0.0218,-0.0153,-0.0137,-0.0101,-0.0062,-0.0068,-0.0013,0.001,0.0013,-0.0043,-0.0048,-0.0052,-0.0065,-0.0024,0,0,0,0,0,-0.046,-0.0458,-0.0411,-0.041,-0.0397,-0.0347,-0.033,-0.0303,-0.0258,-0.0239,-0.0189,-0.0136,-0.0091,-0.0063,-0.0019,0.0013,0.0056,0.0021,0.0016,0.0012,0.0012,0.0074,0.0075,0.0063,0.0063,0.0063,0,0,-0.0475,-0.0455,-0.0453,-0.042,-0.0391,-0.0379,-0.0336,-0.0317,-0.0302,-0.0232,-0.02,-0.0152,-0.0087,-0.005,-0.0031,-0.0017,0.0037,0.0012,0.0008,0.001,0.0073,0.0075,0.0076,0.0063,0.0063,0.0063,0,0,-0.0512,-0.0489,-0.0502,-0.048,-0.0447,-0.041,-0.0409,-0.0357,-0.033,-0.0294,-0.0241,-0.0193,-0.0127,-0.0076,-0.0043,-0.0045,0.0008,-0.0037,-0.0063,-0.0004,-0.0002,-0.0001,0.0048,0.0055,-0.0035,-0.0036,-0.0036,0,-0.0535,-0.054,-0.05,-0.0506,-0.0492,-0.043,-0.0435,-0.0398,-0.0337,-0.0314,-0.0296,-0.0188,-0.0137,-0.008,-0.0081,-0.0055,-0.0017,-0.005,-0.001,-0.0007,-0.0004,0.0046,0.0054,-0.0039,-0.0038,-0.0038,-0.0038,0,-0.0578,-0.0581,-0.0587,-0.0571,-0.055,-0.0545,-0.0489,-0.0464,-0.0424,-0.0377,-0.0318,-0.0242,-0.0177,-0.0155,-0.0117,-0.0071,-0.005,-0.0027,0.0,-0.0007,0.0046,0.0056,-0.0044,-0.0042,-0.0041,-0.0041,0,0,-0.0632,-0.062,-0.0625,-0.0631,-0.0585,-0.0576,-0.0549,-0.0501,-0.0483,-0.0414,-0.0378,-0.0295,-0.0247,-0.0207,-0.0149,-0.0094,-0.0043,-0.0059,-0.0054,-0.0017,0.0082,0.0127,0.0143,-0.0014,-0.0012,-0.0011,0.0108,0,-0.0678,-0.0717,-0.0685,-0.0705,-0.0716,-0.0651,-0.0636,-0.0584,-0.052,-0.0467,-0.0372,-0.0317,-0.0267,-0.0238,-0.0175,-0.0073,-0.0019,-0.0077,0.009,0.0095,0.0131,0.0155,0.0114,0.0219,0.0118,0.012,0.0121,0,-0.073,-0.075,-0.0788,-0.0782,-0.0779,-0.0773,-0.0729,-0.0701,-0.0603,-0.0556,-0.047,-0.039,-0.0291,-0.0254,-0.0083,-0.0124,-0.0032,0.0047,0.0054,0.0127,0.0158,0.0213,0.0241,0.0138,0.0137,0.0135,0.0134,0,-0.08,-0.0818,-0.0854,-0.0853,-0.0834,-0.0831,-0.0807,-0.073,-0.0704,-0.0599,-0.0564,-0.0433,-0.0361,-0.023,-0.0061,-0.0073,0.013,0.0136,0.0264,0.0268,0.0283,0.0286,0.0251,0.0251,0.0251,0.025,0.025,0,-0.0862,-0.0889,-0.0893,-0.0914,-0.0954,-0.0905,-0.0909,-0.0862,-0.0783,-0.075,-0.0615,-0.0551,-0.0351,-0.0205,-0.0068,0.0139,0.013,0.0269,0.0308,0.0258,0.0257,0.0226,0.0222,0.0255,0.0254,0.0253,0.0252,0,-0.0928,-0.0931,-0.0979,-0.0985,-0.0989,-0.1016,-0.0987,-0.098,-0.0897,-0.0842,-0.0813,-0.0625,-0.0427,-0.0221,0.0013,0.0137,0.032,0.0392,0.0317,0.0347,0.0414,0.0405,0.054,0.0542,0.0545,0.0547,0.0548,0,-0.0966,-0.0999,-0.1046,-0.1081,-0.1083,-0.1107,-0.1118,-0.105,-0.1026,-0.0885,-0.0861,-0.0651,-0.0485,-0.0114,0.0137,0.0402,0.0396,0.051,0.0484,0.0423,0.0447,0.0434,0.0422,0.0473,0.0474,0.0474,0.0475,0,-0.1033,-0.105,-0.1094,-0.1171,-0.1203,-0.1237,-0.1232,-0.1231,-0.1136,-0.1063,-0.0914,-0.0763,-0.0391,-0.0077,0.0276,0.0413,0.0464,0.0534,0.0509,0.0405,0.037,0.039,0.0379,0.0481,0.0481,0.048,0.048,0.048,-0.108,-0.1136,-0.1191,-0.1262,-0.1308,-0.1341,-0.1355,-0.1313,-0.1265,-0.1106,-0.0957,-0.0688,-0.0383,0.0135,0.0364,0.0567,0.0562,0.0607,0.06,0.0594,0.0564,0.0535,0.0671,0.0672,0.0672,0.0672,0.0673,0,-0.1127,-0.1191,-0.1267,-0.1351,-0.1405,-0.1405,-0.1413,-0.1372,-0.13,-0.1102,-0.0909,-0.0543,-0.0187,0.0117,0.0454,0.0657,0.0614,0.0672,0.0581,0.0574,0.0568,0.0533,0.0634,0.0635,0.0635,0.0636,0,0,-0.1156,-0.1242,-0.1287,-0.1405,-0.1458,-0.1492,-0.1491,-0.1388,-0.1237,-0.1011,-0.0796,-0.0508,-0.0146,0.0089,0.0335,0.0502,0.0478,0.0501,0.0511,0.0368,0.036,0.0511,0.0449,0,0,0,0,0]}],[{"header":{"parameterUnit":"m.s-1","parameterCategory":2,"la1":30.2991,"la2":30.254,"lo1":-89.0895,"lo2":-89.0444,"dy":0.0017,"dx":0.0017,"nx":28,"ny":28,"refTime":"2023-08-29T09:00:00:Z","depth":"4","parameterNumber":2,"parameterNumberName":"U-component_of_CURRENTS"},"data":[0,0,0,0,0,0,0,0,0,0,0,0,0,0,0,0,0,0,0,0,0,0,0,0,0,0,0,0,0,0,0,0,0,0,0,0,0,0,0,0,0,0,0,0,0,0,0,0,0,0,0,0,0,0,0,0,0,0,-0.1898,-0.1899,0,-0.1964,-0.1964,-0.1965,-0.2004,-0.2004,-0.2004,-0.2005,-0.2059,-0.206,-0.2061,0,0,0,0,0,0,0,0,0,0,0,0,0,-0.1806,-0.1807,-0.1898,-0.1899,-0.19,-0.1964,-0.1964,-0.1965,-0.2004,-0.2004,-0.2004,-0.2005,-0.2059,-0.206,-0.2061,0,0,0,0,0,0,0,0,0,0,0,0,0,-0.1855,-0.1808,-0.1898,-0.1928,-0.1931,-0.1963,-0.1964,-0.1965,-0.2004,-0.2004,-0.2004,-0.2005,-0.2058,-0.206,-0.2061,-0.2063,0,0,-0.2067,-0.2067,0,0,0,0,0,0,0,0,-0.1852,-0.1858,-0.1922,-0.1926,-0.193,-0.1977,-0.1952,-0.1998,-0.2003,-0.1974,-0.2005,-0.2005,-0.2031,-0.2035,-0.2044,-0.2065,-0.2068,-0.2067,-0.2068,-0.2069,-0.2069,0,0,0,0,0,0,0,-0.1848,-0.1855,-0.1922,-0.1923,-0.1928,-0.1938,-0.1946,-0.1961,-0.1998,-0.1977,-0.198,-0.199,-0.2033,-0.2043,-0.2046,-0.2068,-0.2067,-0.2068,-0.2069,-0.207,-0.218,-0.2182,0,0,0,0,0,0,-0.1843,-0.1852,-0.192,-0.1924,-0.1893,-0.194,-0.1948,-0.196,-0.1998,-0.2005,-0.199,-0.1992,-0.2039,-0.2044,-0.2048,-0.2132,-0.2069,-0.207,-0.2071,-0.2178,-0.218,-0.2182,0,0,0,0,0,0,-0.1841,-0.1849,-0.1918,-0.1891,-0.19,-0.1941,-0.1955,-0.1961,-0.2003,-0.2008,-0.2015,-0.2028,-0.204,-0.2046,-0.2092,-0.2131,-0.2071,-0.2073,-0.2176,-0.2179,-0.2181,-0.2248,0,0,0,0,0,0,-0.1838,-0.1848,-0.1871,-0.1891,-0.1902,-0.1959,-0.1955,-0.1962,-0.2007,-0.2011,-0.2043,-0.2046,-0.2041,-0.209,-0.2094,-0.2133,-0.2074,-0.2173,-0.2177,-0.218,-0.2244,-0.2253,-0.2261,0,0,0,0,0,-0.1835,-0.1859,-0.1872,-0.1881,-0.1928,-0.1961,-0.1968,-0.1997,-0.2009,-0.2035,-0.2058,-0.2047,-0.2115,-0.2093,-0.2097,-0.2137,-0.2172,-0.2176,-0.218,-0.224,-0.2251,-0.2261,0,0,0,0,0,0,-0.1833,-0.1866,-0.188,-0.1915,-0.1948,-0.1969,-0.1999,-0.2017,-0.2056,-0.2069,-0.207,-0.2076,-0.2131,-0.2127,-0.2102,-0.218,-0.2142,-0.2148,-0.2186,-0.2197,-0.2206,-0.2199,-0.2075,0,0,0,0,0,-0.1843,-0.1871,-0.1902,-0.1933,-0.1953,-0.1983,-0.2007,-0.2028,-0.2056,-0.2076,-0.2099,-0.2123,-0.2147,-0.2167,-0.2185,-0.2228,-0.2203,-0.2258,-0.2266,-0.2274,-0.2272,-0.2271,-0.2279,-0.2196,-0.2196,-0.2196,0,0,-0.1853,-0.1874,-0.1893,-0.1936,-0.1964,-0.2001,-0.1999,-0.2047,-0.2085,-0.2074,-0.2143,-0.2157,-0.2165,-0.2214,-0.2238,-0.2219,-0.2285,-0.2279,-0.2285,-0.2279,-0.2276,-0.2284,-0.2291,-0.2199,-0.2199,-0.2198,0,0,-0.1873,-0.1906,-0.1935,-0.1967,-0.2016,-0.2036,-0.2057,-0.2102,-0.2134,-0.2191,-0.2195,-0.2231,-0.2276,-0.2286,-0.2295,-0.2363,-0.2331,-0.238,-0.242,-0.242,-0.2426,-0.2431,-0.2407,-0.2409,-0.2384,-0.2385,-0.2385,0,-0.1885,-0.1921,-0.195,-0.1987,-0.2017,-0.2056,-0.2094,-0.2134,-0.2191,-0.2217,-0.2226,-0.2293,-0.2305,-0.2348,-0.2377,-0.2382,-0.2368,-0.2378,-0.2429,-0.2434,-0.2438,-0.2412,-0.2414,-0.2388,-0.2388,-0.2388,-0.2387,0,-0.1916,-0.196,-0.1982,-0.2039,-0.2078,-0.2119,-0.2171,-0.2224,-0.2266,-0.2293,-0.2359,-0.2378,-0.2409,-0.243,-0.2427,-0.2472,-0.2449,-0.2438,-0.2397,-0.245,-0.242,-0.242,-0.2394,-0.2392,-0.2391,-0.239,0,0,-0.1891,-0.1985,-0.1994,-0.2033,-0.2109,-0.214,-0.2215,-0.2276,-0.2323,-0.2383,-0.2429,-0.2483,-0.2491,-0.2501,-0.2507,-0.2517,-0.254,-0.25,-0.2498,-0.2467,-0.2527,-0.2362,-0.2346,-0.2541,-0.2542,-0.2542,-0.2492,0,-0.1905,-0.1976,-0.202,-0.2097,-0.2137,-0.22,-0.2261,-0.2327,-0.2382,-0.244,-0.247,-0.2517,-0.2519,-0.254,-0.2554,-0.2546,-0.2546,-0.2553,-0.2489,-0.2486,-0.2325,-0.2343,-0.2545,-0.2493,-0.2493,-0.2493,-0.2493,0,-0.1905,-0.1956,-0.2029,-0.2125,-0.215,-0.2206,-0.23,-0.2361,-0.2446,-0.2485,-0.2534,-0.2557,-0.2594,-0.2583,-0.2585,-0.2593,-0.2567,-0.2552,-0.255,-0.2369,-0.2322,-0.2431,-0.2493,-0.2493,-0.2493,-0.2493,-0.2493,0,-0.1851,-0.1955,-0.2014,-0.2049,-0.2165,-0.2217,-0.2282,-0.2375,-0.2426,-0.2513,-0.2546,-0.2591,-0.2613,-0.2604,-0.2581,-0.2591,-0.2558,-0.256,-0.2381,-0.2369,-0.2504,-0.2499,-0.2547,-0.2547,-0.2547,-0.2547,-0.2548,0,-0.1821,-0.1873,-0.2003,-0.2035,-0.211,-0.2201,-0.2281,-0.2352,-0.2444,-0.2473,-0.2562,-0.2571,-0.2623,-0.2612,-0.2585,-0.2468,-0.2555,-0.2377,-0.2343,-0.2533,-0.2533,-0.2503,-0.2499,-0.2545,-0.2546,-0.2546,-0.2547,0,-0.1741,-0.183,-0.1905,-0.204,-0.2088,-0.2139,-0.2273,-0.2308,-0.2422,-0.2461,-0.2486,-0.2567,-0.2538,-0.2554,-0.2526,-0.2445,-0.2369,-0.2306,-0.2494,-0.2474,-0.2181,-0.2181,-0.2098,-0.2091,-0.2086,-0.2082,-0.2078,0,-0.1701,-0.1735,-0.1887,-0.1923,-0.1987,-0.2085,-0.213,-0.2272,-0.2295,-0.2417,-0.2397,-0.2442,-0.2461,-0.2284,-0.233,-0.2246,-0.2223,-0.2172,-0.219,-0.2158,-0.2134,-0.2143,-0.215,-0.2069,-0.2068,-0.2066,-0.2065,0,-0.1612,-0.1681,-0.1736,-0.1818,-0.188,-0.1948,-0.2026,-0.204,-0.2162,-0.2285,-0.2236,-0.2217,-0.2182,-0.2153,-0.2103,-0.205,-0.2201,-0.2116,-0.2127,-0.2144,-0.2123,-0.2107,-0.212,-0.2047,-0.2049,-0.2051,-0.2052,0,-0.1531,-0.1546,-0.1624,-0.1676,-0.1752,-0.1773,-0.1849,-0.186,-0.1917,-0.2047,-0.2015,-0.2063,-0.214,-0.2048,-0.1998,-0.1935,-0.1912,-0.1851,-0.1876,-0.1897,-0.1855,-0.18,-0.1581,0,0,0,0,0,-0.1439,-0.1434,-0.1469,-0.1518,-0.1586,-0.1634,-0.1745,-0.1818,-0.1941,-0.184,-0.1928,-0.1877,-0.1822,-0.1858,-0.1748,-0.1916,-0.1927,-0.1781,-0.1874,-0.1944,-0.1965,-0.1936,0,0,0,0,0,0,-0.137,-0.1399,-0.1414,-0.137,-0.1367,-0.1427,-0.1495,-0.1587,-0.155,-0.1678,-0.1654,-0.1745,-0.1718,-0.1834,-0.1698,-0.1706,-0.1723,-0.182,-0.1815,-0.1932,-0.1951,-0.1968,-0.1945,0,0,0,0,0]},{"header":{"parameterUnit":"m.s-1","parameterCategory":2,"la1":30.2991,"la2":30.254,"lo1":-89.0895,"lo2":-89.0444,"dy":0.0017,"dx":0.0017,"nx":28,"ny":28,"refTime":"2023-08-29T09:00:00:Z","depth":"4","parameterNumber":3,"parameterNumberName":"V-component_of_CURRENTS"},"data":[0,0,0,0,0,0,0,0,0,0,0,0,0,0,0,0,0,0,0,0,0,0,0,0,0,0,0,0,0,0,0,0,0,0,0,0,0,0,0,0,0,0,0,0,0,0,0,0,0,0,0,0,0,0,0,0,0,0,-0.0164,-0.0163,0,-0.0101,-0.0101,-0.01,-0.0057,-0.0056,-0.0056,-0.0056,0.0043,0.0045,0.0047,0,0,0,0,0,0,0,0,0,0,0,0,0,-0.0204,-0.0203,-0.0164,-0.0163,-0.0162,-0.0101,-0.0101,-0.01,-0.0057,-0.0056,-0.0056,-0.0056,0.0042,0.0045,0.0048,0,0,0,0,0,0,0,0,0,0,0,0,0,-0.0167,-0.0203,-0.0164,-0.0134,-0.0131,-0.0102,-0.01,-0.0099,-0.0057,-0.0056,-0.0056,-0.0056,0.0041,0.0044,0.0048,0.0063,0,0,0.0059,0.0061,0,0,0,0,0,0,0,0,-0.017,-0.0166,-0.0139,-0.0136,-0.0133,-0.0087,-0.0078,-0.0043,-0.0057,-0.0084,-0.0056,-0.0056,0.0002,0.0008,0.002,0.0068,0.0072,0.0059,0.0061,0.0063,0.0064,0,0,0,0,0,0,0,-0.0172,-0.0168,-0.0138,-0.0139,-0.0135,-0.011,-0.0105,-0.0072,-0.0042,-0.0081,-0.0078,-0.0073,0.0004,0.0017,0.0023,0.0074,0.0059,0.0062,0.0065,0.0066,0.0141,0.0141,0,0,0,0,0,0,-0.0185,-0.0171,-0.014,-0.0136,-0.0152,-0.011,-0.0104,-0.0101,-0.0043,-0.0035,-0.0074,-0.0072,0.001,0.0019,0.0027,0.0045,0.0063,0.0066,0.0068,0.0142,0.0141,0.0141,0,0,0,0,0,0,-0.0186,-0.0183,-0.0142,-0.0153,-0.0146,-0.011,-0.0107,-0.01,-0.009,-0.0038,-0.0028,-0.0071,0.0011,0.0022,0.0055,0.0049,0.0068,0.0071,0.0142,0.0142,0.0141,0.0083,0,0,0,0,0,0,-0.0187,-0.0183,-0.019,-0.0154,-0.0146,-0.0133,-0.0107,-0.0099,-0.0088,-0.0084,-0.0033,-0.0023,0.0012,0.0049,0.0058,0.0054,0.0074,0.0142,0.0142,0.0141,0.0085,0.0081,0.0077,0,0,0,0,0,-0.0189,-0.0199,-0.019,-0.0187,-0.0154,-0.0133,-0.0127,-0.0099,-0.0088,-0.0088,-0.005,-0.0025,0.0053,0.0052,0.0063,0.006,0.0142,0.0142,0.0141,0.0087,0.0082,0.0077,0,0,0,0,0,0,-0.0218,-0.0194,-0.0184,-0.0186,-0.0166,-0.0127,-0.0126,-0.0106,-0.0076,-0.0074,-0.0023,-0.0011,0.0014,0.0045,0.0042,0.008,0.0101,0.0102,0.0056,0.0051,0.0047,0.0037,0.0077,0,0,0,0,0,-0.0229,-0.0232,-0.0201,-0.0205,-0.0197,-0.0164,-0.0153,-0.0135,-0.0103,-0.009,-0.0053,-0.0013,0.0021,0.0042,0.0075,0.0098,0.0134,0.0103,0.0099,0.0095,0.0094,0.0145,0.0145,0.014,0.014,0.014,0,0,-0.0241,-0.023,-0.0231,-0.0212,-0.0194,-0.0189,-0.0157,-0.0147,-0.014,-0.0084,-0.0065,-0.0028,0.0023,0.0048,0.0062,0.0074,0.0114,0.0095,0.0091,0.0092,0.0144,0.0145,0.0145,0.014,0.014,0.014,0,0,-0.027,-0.0258,-0.0271,-0.0258,-0.0239,-0.0215,-0.0216,-0.0182,-0.0164,-0.0141,-0.01,-0.0064,-0.0016,0.0023,0.0049,0.0044,0.0088,0.005,0.0026,0.0075,0.0075,0.0077,0.0115,0.012,0.0051,0.0051,0.0051,0,-0.0287,-0.0296,-0.027,-0.0278,-0.0274,-0.0231,-0.024,-0.0215,-0.0174,-0.0159,-0.0145,-0.0067,-0.0026,0.0016,0.0014,0.0035,0.0066,0.0039,0.0069,0.0071,0.0073,0.0112,0.0119,0.0048,0.0048,0.0049,0.0049,0,-0.032,-0.033,-0.0336,-0.0332,-0.0322,-0.0323,-0.0287,-0.0274,-0.0248,-0.0215,-0.0175,-0.0115,-0.0067,-0.005,-0.0018,0.0017,0.0034,0.0055,0.0079,0.007,0.0112,0.012,0.0044,0.0045,0.0046,0.0047,0,0,-0.0354,-0.036,-0.0365,-0.0376,-0.0352,-0.0349,-0.0337,-0.031,-0.0303,-0.0253,-0.0232,-0.0168,-0.0131,-0.0099,-0.0052,-0.0006,0.0034,0.0025,0.0029,0.0058,0.0136,0.0126,0.0134,0.006,0.0062,0.0063,0.0155,0,-0.0389,-0.0428,-0.0411,-0.0438,-0.0451,-0.0414,-0.041,-0.038,-0.0338,-0.0305,-0.0232,-0.0195,-0.015,-0.0129,-0.0076,0.0008,0.0053,0.0007,0.0144,0.0148,0.0137,0.0142,0.0066,0.0161,0.0163,0.0165,0.0165,0,-0.0423,-0.0447,-0.0489,-0.0501,-0.0504,-0.0509,-0.0493,-0.048,-0.0416,-0.0385,-0.0322,-0.0261,-0.0183,-0.0149,-0.0008,-0.004,0.0039,0.0105,0.0111,0.0128,0.0153,0.0176,0.018,0.0179,0.0178,0.0177,0.0176,0,-0.0465,-0.0496,-0.0536,-0.0541,-0.0547,-0.0557,-0.0552,-0.0508,-0.0497,-0.0427,-0.0406,-0.0303,-0.0249,-0.0138,0.0003,-0.0003,0.016,0.0172,0.0238,0.0239,0.0245,0.0243,0.0268,0.0267,0.0267,0.0267,0.0267,0,-0.05,-0.0532,-0.0566,-0.0587,-0.0637,-0.0614,-0.0638,-0.0611,-0.0568,-0.055,-0.0451,-0.0406,-0.0243,-0.0127,-0.0008,0.0141,0.0156,0.0235,0.0264,0.0217,0.0211,0.0251,0.0247,0.027,0.027,0.0269,0.0268,0,-0.053,-0.0553,-0.0606,-0.0642,-0.0658,-0.0692,-0.0705,-0.0709,-0.0662,-0.0631,-0.0612,-0.0474,-0.0322,-0.0156,0.0039,0.0123,0.0266,0.0316,0.025,0.0273,0.0312,0.0305,0.0388,0.0389,0.0389,0.0389,0.039,0,-0.0546,-0.0579,-0.0657,-0.0699,-0.0718,-0.0764,-0.079,-0.0764,-0.0754,-0.0668,-0.065,-0.0502,-0.0396,-0.0121,0.0043,0.0268,0.0298,0.036,0.0337,0.0306,0.0326,0.0318,0.031,0.039,0.039,0.0391,0.0391,0,-0.0573,-0.0609,-0.0656,-0.0748,-0.0799,-0.0851,-0.0875,-0.0874,-0.0825,-0.0793,-0.0661,-0.0508,-0.0332,-0.012,0.006,0.0218,0.0311,0.0365,0.0365,0.0343,0.031,0.0327,0.0319,0.0392,0.0392,0.0392,0.0392,0,-0.0593,-0.0642,-0.071,-0.0784,-0.0859,-0.0901,-0.0915,-0.0884,-0.0864,-0.0754,-0.0714,-0.051,-0.0387,-0.0145,0.0019,0.0175,0.0205,0.0239,0.0246,0.0246,0.0174,0.0109,0.0156,0,0,0,0,0,-0.0601,-0.0654,-0.0732,-0.0816,-0.0889,-0.0923,-0.0951,-0.0946,-0.0905,-0.0816,-0.0756,-0.0585,-0.0316,-0.0195,-0.0038,0.0004,0.0213,0.0188,0.025,0.04,0.0398,0.0337,0,0,0,0,0,0,-0.061,-0.0685,-0.0729,-0.0818,-0.0873,-0.0941,-0.0958,-0.0932,-0.087,-0.0805,-0.0653,-0.0567,-0.0302,-0.04,-0.0038,0.0008,0.0063,0.0318,0.0321,0.0401,0.0399,0.0398,0.0335,0,0,0,0,0]}]]